Regional Weather Roundup
Issued by NWS Newport/Morehead, NC

Current Version | Previous Version | Text Only | Print | Product List | Glossary Off
Versions: 1 2 3 4 5 6 7 8 9 10 11 12 13 14 15 16 17 18 19 20 21 22 23 24 25 26 27 28 29 30 31 32 33 34 35 36 37 38 39 40 41 42 43 44 45 46 47 48 49 50
000 ASUS42 KMHX 220625 RWRMHX WEATHER ROUNDUP FOR EASTERN NORTH CAROLINA NATIONAL WEATHER SERVICE NEWPORT/MOREHEAD CITY NC 200 AM EDT THU JUN 22 2017 NOTE: "FAIR" INDICATES FEW OR NO CLOUDS BELOW 12,000 FEET WITH NO SIGNIFICANT WEATHER AND/OR OBSTRUCTIONS TO VISIBILITY NCZ015>017-031-032-045>047-102-103-220700- NORTH COAST CITY SKY/WX TMP DP RH WIND PRES REMARKS EDENTON CLOUDY 76 73 88 CALM 30.06F ELIZABETH CITY PTCLDY 74 74 100 SW9 30.05F KITTY HAWK CLOUDY 75 72 88 SW5 30.05S MANTEO MOCLDY 74 72 91 W10 30.07S $$ NCZ045>047-081-094-103-104-220700- CENTRAL COAST CITY SKY/WX TMP DP RH WIND PRES REMARKS FRISCO CLOUDY 77 74 90 SW9 30.07F $$ NCZ095-097-098-100-101-220700- SOUTHERN COAST CITY SKY/WX TMP DP RH WIND PRES REMARKS BEAUFORT CLOUDY 78 77 96 SW8 30.08F CEDAR ISLAND NOT AVBL JACKSONVILLE PTCLDY 73 73 100 CALM 30.08S PINEY ISLAND MOCLDY N/A N/A N/A SW6 30.08S WILMINGTON PTCLDY 76 75 97 SW7 30.08F $$ NCZ011>013-027>030-043-044-078>080-089-090>093-098-220700- COASTAL PLAIN CITY SKY/WX TMP DP RH WIND PRES REMARKS AHOSKIE N/A 70 70 99 CALM 30.06S CLINTON MOCLDY 73 73 100 SW3 30.08F ELIZABETHTOWN NOT AVBL GOLDSBORO CLOUDY 73 73 100 S3 30.06F GREENVILLE CLOUDY 73 73 100 SW5 30.08S HAVELOCK CLOUDY 75 73 93 SW7 30.09S KENANSVILLE CLOUDY 73 72 94 CALM 30.09S KINSTON MOCLDY 74 73 96 SW6 30.09S NEW BERN MOCLDY 73 73 100 SW7 30.09S RICHLANDS PTCLDY 72 71 97 S3 30.09F ROCKY MOUNT CLOUDY 73 73 100 SW5 30.07F WASHINGTON CLOUDY 73 72 96 SW6 30.08R WHITEVILLE CLOUDY 75 73 96 SW3 30.08F $$ AMZ130-135-150-152-154-156-158-170-250-252-270-ANZ085-086-088-633-658-670-220700- MARINE OBSERVATIONS STATION/POSITION TIME TEMP WIND PRES WAVE SWELL AIR SEA DIR/SP/G HT/PER HT/PER (UTC) (F) (DEG/KT/KT) (MB) (FT/S) (FT/S) CHESAPEAKE LIGHT NOT AVBL 64 E VA BEACH 0550 72 70 230/ 10/ 12 1017.7 3/ 5 2/ 6 DUCK 0600 76 63 240/ 13/ 15 1017.2 2 E DUCK NOT AVBL OREGON INLET 0600 76 78 230/ 14/ 16 1017.8 13E OREGON INLT 0548 71 N/A 3/ 5 2/13 HATTERAS CG 0600 77 78 240/ 7/ 12 1018.1 DIAMOND BUOY 0550 79 80 230/ 16/ 17 1018.3 3/ 4 2/ 7 CAPE LOOKOUT 0600 78 240/ 7/ 10 1018.4 BEAUFORT LAB 0600 78 77 240/ 5/ 8 1018.0 30 SE NEW RVR IN 0608 78 80 230/ 12/ 16 1018.9 30 SE NEW RVR IN 0613 80 N/A 3/ 7 27 SE WRIGHTSVLE 0608 78 79 210/ 10/ 14 1018.0 5 SE WRIGHTSVLE 0608 79 78 220/ 8/ 14 1018.7 225 S CAPE HAT 0550 81 82 190/ 14/ 16 1021.1 4/ 7 3/ 7 41 SE CHARLESTON 0610 80 81 200/ 10/ 12 1019.0 $$

USA.gov is the U.S. government's official web portal to all federal, state and local government web resources and services.